#timestamp,LO_Frequency,Hit,StdDev 
1459857615.2,286046995.0,N
1459857635.9,286046997.9,N
1459857655.7,286046998.9,N
1459857675.6,286046999.0,N
1459857695.4,286046998.7,N
1459857715.2,286046997.5,N
1459857735.1,286046999.0,N
1459857736.0,286046999.0,N
1459857755.8,286046999.3,N
1459857775.6,286046998.4,N
1459857795.5,286047000.9,N
1459857815.3,286046997.5,N
1459857835.1,286046996.5,N
1459857855.8,286046996.7,N
1459857875.7,286047001.5,N
1459857895.5,286047002.3,N
1459857915.3,286046998.1,N
1459857935.2,286046998.4,N
1459857955.0,286047004.3,N
1459857955.9,286047004.3,N
1459857975.7,286047005.8,N
1459857995.6,286047006.0,N
1459858015.4,286047002.9,N
1459858035.2,286047004.7,N
1459858055.1,286047005.0,N
1459858056.0,286047005.0,N
1459858075.8,286047004.5,N
1459858095.6,286047007.6,N
1459858115.5,286047004.5,N
1459858135.3,286047006.4,N
1459858155.1,286047010.1,N
1459858175.9,286047011.7,Y
1459858195.7,286047007.1,P
1459858215.5,286047005.8,N
1459858235.4,286047004.8,N
1459858255.2,286047001.5,N
1459858275.0,286047002.8,N
1459858275.9,286047002.8,N
1459858295.8,286046998.4,N
1459858315.6,286047002.1,N
1459858335.4,286047000.2,N
1459858355.3,286047000.4,N
1459858375.1,286046996.5,N
1459858376.0,286046996.5,N
1459858395.8,286046993.5,N
1459858415.6,286046992.8,N
1459858435.5,286046990.1,N
1459858455.3,286046995.6,N
1459858475.1,286046996.3,N
1459858495.9,286046995.0,N
1459858515.7,286046996.2,N
1459858535.5,286046996.5,N
1459858555.4,286046999.3,N
1459858575.2,286047001.0,N
1459858595.0,286047000.4,N
1459858595.9,286047000.4,N
1459858615.8,286046998.2,N
1459858635.6,286046997.5,N
1459858655.4,286046995.9,N
1459858675.3,286046993.6,N
1459858695.1,286046992.2,N
1459858696.0,286046992.2,N
1459858715.8,286046992.7,N
1459858735.6,286046994.5,N
1459858755.5,286046990.6,N
1459858775.3,286046992.9,N
1459858795.1,286046993.0,N
1459858815.9,286046992.0,N
1459858835.7,286046994.4,N
1459858855.5,286046993.5,N
1459858875.4,286046991.4,N
1459858895.2,286046990.7,Y
1459858915.1,286046994.4,P
1459858916.0,286046994.4,P
1459858935.8,286046994.6,P
1459858955.6,286046994.8,Y
1459858975.5,286047000.7,P
1459858995.3,286046998.7,N
1459859015.1,286047001.1,N
1459859035.9,286047000.8,N
1459859055.7,286046997.0,N
1459859075.5,286047002.4,N
1459859095.4,286047000.8,N
1459859115.2,286046996.8,N
1459859135.0,286046997.2,N
1459859135.9,286046997.2,N
1459859155.7,286046993.9,N
1459859175.6,286046993.1,N
1459859195.4,286046993.1,N
1459859215.3,286046990.2,Y
1459859235.1,286046996.9,P
1459859236.0,286046996.9,P
1459859255.8,286046998.4,P
1459859275.6,286046998.6,N
1459859295.5,286046999.5,N
1459859315.3,286046999.9,N
1459859335.1,286047005.5,Y
1459859355.9,286047007.1,P
1459859375.7,286047011.9,N
1459859395.5,286047017.3,P
1459859415.4,286047018.8,N
1459859435.2,286047017.0,N
1459859455.0,286047016.3,N
1459859455.9,286047016.3,N
1459859475.8,286047023.4,Y
1459859495.6,286047010.5,P
1459859515.4,286047006.4,P
1459859535.3,286047010.7,P
1459859555.1,286047010.7,Y
1459859575.8,286047004.1,P
1459859595.7,286047005.6,N
1459859615.5,286047003.6,N
1459859635.3,286047005.0,N
1459859655.2,286047008.1,Y
1459859675.0,286046998.2,P
1459859675.9,286046998.2,N
1459859695.7,286047000.1,N
1459859715.6,286047000.8,N
1459859735.4,286046997.0,N
1459859755.2,286046997.6,N
1459859775.1,286046996.1,N
1459859776.0,286046996.1,N
1459859795.8,286046995.8,N
1459859815.6,286046993.3,N
1459859835.5,286046992.9,N
1459859855.3,286046985.7,Y
1459859875.1,286046992.6,P
1459859895.9,286046992.7,N
1459859915.7,286046993.0,N
1459859935.5,286046985.4,Y
1459859955.4,286046994.1,P
1459859975.2,286046997.7,P
1459859995.0,286046993.3,P
1459859995.9,286046993.3,Y
1459860015.8,286046996.9,P
1459860035.6,286046999.2,N
1459860055.4,286046997.3,N
1459860075.3,286046995.6,N
1459860095.1,286046993.6,Y
1459860115.8,286047000.9,P
1459860135.7,286047002.6,N
1459860155.5,286047000.8,N
1459860175.3,286046996.5,N
1459860195.2,286046995.7,N
1459860215.9,286046992.5,N
1459860235.7,286046992.6,N
1459860255.6,286046991.7,N
1459860275.4,286046993.0,N
1459860295.2,286046988.7,Y
1459860315.1,286046996.1,P
1459860316.0,286046996.1,P
1459860335.8,286046997.6,P
1459860355.6,286046995.9,Y
1459860375.5,286046998.7,P
1459860395.3,286046998.8,N
1459860415.1,286046998.9,N
1459860435.9,286046997.9,N
1459860455.7,286046995.1,Y
1459860475.5,286046998.9,P
1459860495.4,286047001.2,P
1459860515.2,286046999.1,N
1459860535.0,286046996.5,Y
1459860535.9,286046996.5,P
1459860555.8,286046998.1,N
1459860575.6,286046998.5,N
1459860595.4,286046998.4,N
1459860615.3,286046998.1,N
1459860635.1,286047004.0,Y
1459860636.0,286047004.0,P
1459860655.8,286047007.1,N
1459860675.7,286047007.6,N
1459860695.5,286047004.1,N
1459860715.3,286047000.0,N
1459860735.2,286047001.5,N
1459860755.9,286047005.6,N
1459860775.7,286047001.5,N
1459860795.6,286047002.3,N
1459860815.4,286047002.0,N
1459860835.2,286047001.5,N
1459860855.0,286047001.5,N
1459860855.9,286047001.5,N
1459860875.8,286047004.7,N
1459860895.6,286047005.2,N
1459860915.4,286047003.8,N
1459860935.3,286047002.3,N
1459860955.1,286047000.1,N
1459860956.0,286047000.1,N
1459860975.8,286047000.7,N
1459860995.7,286046998.4,N
1459861015.5,286046998.4,N
1459861035.3,286046997.4,N
1459861055.2,286047001.0,N
1459861075.9,286047000.9,N
1459861095.7,286047003.6,N
1459861115.6,286047003.6,N
1459861135.4,286047001.7,N
1459861155.2,286047001.7,N
1459861175.0,286047002.7,N
1459861175.9,286047002.7,N
1459861195.8,286046998.1,N
